Date String (YYYY-MM-DD hh:mm:ss) UTC,Instrument flags,absolute air pressure of the measurement (hPa),sample flow rate (lpm),inlet stack bypass flow (lpm),air temperature of the measurement (°C),ambient temperature measured by the external sensor (°C),aerosol sample conditioner tube jacket temperature (°C),OPC LED temperature (°C),internal box temperature (°C),relative humidity of the measurement (%),span deviation,mass concentration of particles derived from Lorenz-Mie calculation of OPC scattering (μg/m³),mass concentration of particles derived from Lorenz-Mie calculation of OPC scattering (μg/m³),mass concentration of particles derived from Lorenz-Mie calculation of OPC scattering (μg/m³)
DateTimeUTC,F1_M11,P_M11,Q1_M11,Q2_M11,T1_M11,T2_M11,T3_M11,T4_M11,T5_M11,U1_M11,ZSPAN_M11,X0_M11,X2_M11,X1_M11
2023-09-05 07:00:00,SystemResetWarning,0827.0,5.00,000.00,028.4,027.2,000.0,036.7,030.0,17.9,0000.0,0002.59,0001.28,0000.88
2023-09-05 07:01:00,SystemResetWarning,0826.9,5.00,000.00,028.4,027.3,000.0,036.7,030.0,17.5,0000.0,0002.56,0001.24,0000.86
2023-09-05 07:02:00,SystemResetWarning,0827.0,4.99,000.00,028.4,027.3,000.0,036.7,030.1,17.7,0000.0,0002.51,0001.21,0000.85
2023-09-05 07:03:00,SystemResetWarning,0827.0,4.99,000.00,028.5,027.0,000.0,036.7,030.0,17.8,0000.0,0003.14,0001.27,0000.85
2023-09-05 07:04:00,SystemResetWarning,0826.9,5.00,000.00,028.4,025.3,000.0,036.6,029.5,17.9,0000.0,0003.28,0001.26,0000.84
2023-09-05 07:05:00,SystemResetWarning,0826.9,5.01,000.00,028.2,024.4,000.0,036.5,029.3,18.0,0000.0,0003.21,0001.23,0000.83
2023-09-05 07:06:00,SystemResetWarning,0826.9,5.01,000.00,028.1,024.5,000.0,036.5,029.2,18.2,0000.0,0003.03,0001.18,0000.83
2023-09-05 07:07:00,SystemResetWarning,0826.9,4.99,000.00,028.0,024.8,000.0,036.5,029.2,18.3,0000.0,0003.00,0001.18,0000.83
2023-09-05 07:08:00,SystemResetWarning,0826.9,5.00,000.00,028.0,025.1,000.0,036.5,029.3,18.5,0000.0,0002.90,0001.18,0000.82
2023-09-05 07:09:00,SystemResetWarning,0826.9,5.00,000.00,028.0,025.4,000.0,036.5,029.3,18.1,0000.0,0002.87,0001.17,0000.81
2023-09-05 07:10:00,SystemResetWarning,0826.9,5.01,000.00,028.0,025.7,000.0,036.5,029.4,18.2,0000.0,0002.97,0001.17,0000.81
2023-09-05 07:11:00,SystemResetWarning,0826.9,5.01,000.00,028.0,026.0,000.0,036.5,029.4,18.3,0000.0,0004.58,0001.15,0000.81
2023-09-05 07:12:00,SystemResetWarning,0826.8,5.00,000.00,028.0,026.2,000.0,036.5,029.5,18.4,0000.0,0004.48,0001.14,0000.81
2023-09-05 07:13:00,SystemResetWarning,0826.8,4.99,000.00,028.0,026.3,000.0,036.5,029.5,18.1,0000.0,0004.45,0001.13,0000.81
2023-09-05 07:14:00,SystemResetWarning,0826.9,4.99,000.00,028.0,026.4,000.0,036.5,029.5,18.1,0000.0,0004.12,0001.08,0000.81
2023-09-05 07:15:00,SystemResetWarning,0827.0,5.00,000.00,028.1,026.5,000.0,036.5,029.6,18.1,0000.0,0003.21,0001.03,0000.80
2023-09-05 07:16:00,SystemResetWarning,0826.9,5.00,000.00,028.1,026.6,000.0,036.5,029.6,18.4,0000.0,0003.23,0001.04,0000.80
2023-09-05 07:17:00,SystemResetWarning,0826.9,5.01,000.00,028.1,026.7,000.0,036.5,029.7,18.4,0000.0,0003.42,0001.07,0000.79
2023-09-05 07:18:00,SystemResetWarning,0827.0,5.00,000.00,028.1,026.8,000.0,036.5,029.7,18.5,0000.0,0003.48,0001.07,0000.78
2023-09-05 07:19:00,SystemResetWarning,0827.0,5.00,000.00,028.1,026.8,000.0,036.5,029.7,18.1,0000.0,0003.54,0001.07,0000.78
2023-09-05 07:20:00,SystemResetWarning,0826.9,4.99,000.00,028.2,026.9,000.0,036.5,029.7,18.2,0000.0,0003.62,0001.09,0000.79
2023-09-05 07:21:00,SystemResetWarning,0827.0,5.00,000.00,028.2,026.9,000.0,036.5,029.7,17.9,0000.0,0003.67,0001.11,0000.80
2023-09-05 07:22:00,SystemResetWarning,0827.0,5.00,000.00,028.2,026.9,000.0,036.5,029.7,18.4,0000.0,0002.16,0001.12,0000.79
2023-09-05 07:23:00,SystemResetWarning,0827.0,5.01,000.00,028.2,027.0,000.0,036.6,029.8,17.9,0000.0,0002.01,0001.13,0000.79
2023-09-05 07:24:00,SystemResetWarning,0827.0,5.01,000.00,028.2,027.0,000.0,036.6,029.8,18.0,0000.0,0002.05,0001.15,0000.80
2023-09-05 07:25:00,SystemResetWarning,0827.0,5.00,000.00,028.3,027.1,000.0,036.6,029.9,18.1,0000.0,0002.64,0001.17,0000.80
2023-09-05 07:26:00,SystemResetWarning,0826.9,5.00,000.00,028.3,027.1,000.0,036.6,029.9,18.1,0000.0,0003.04,0001.18,0000.80
2023-09-05 07:27:00,SystemResetWarning,0827.0,5.01,000.00,028.3,027.1,000.0,036.6,029.9,18.0,0000.0,0003.06,0001.17,0000.80
2023-09-05 07:28:00,SystemResetWarning,0826.9,5.00,000.00,028.3,027.1,000.0,036.6,029.9,18.0,0000.0,0002.98,0001.14,0000.80
2023-09-05 07:29:00,SystemResetWarning,0826.8,4.99,000.00,028.3,027.1,000.0,036.7,029.9,17.3,0000.0,0002.90,0001.12,0000.80
2023-09-05 07:30:00,SystemResetWarning,0826.9,4.99,000.00,028.4,027.1,000.0,036.7,029.9,17.1,0000.0,0002.78,0001.09,0000.80
2023-09-05 07:31:00,SystemResetWarning,0827.1,5.00,000.00,028.4,027.2,000.0,036.7,029.9,17.7,0000.0,0002.89,0001.14,0000.79
2023-09-05 07:32:00,SystemResetWarning,0827.0,5.00,000.00,028.4,027.2,000.0,036.7,030.0,18.1,0000.0,0002.97,0001.18,0000.79
2023-09-05 07:33:00,SystemResetWarning,0827.0,5.00,000.00,028.4,027.2,000.0,036.7,030.0,17.9,0000.0,0002.95,0001.19,0000.79
2023-09-05 07:34:00,SystemResetWarning,0827.0,5.01,000.00,028.4,027.2,000.0,036.7,030.0,17.4,0000.0,0003.01,0001.20,0000.78
2023-09-05 07:35:00,SystemResetWarning,0827.0,5.00,000.00,028.4,027.2,000.0,036.7,030.0,17.1,0000.0,0003.12,0001.20,0000.78
2023-09-05 07:36:00,SystemResetWarning,0827.0,5.00,000.00,028.5,027.2,000.0,036.7,030.0,17.0,0000.0,0003.01,0001.14,0000.76
2023-09-05 07:37:00,SystemResetWarning,0826.9,4.99,000.00,028.5,027.2,000.0,036.7,030.1,16.9,0000.0,0002.28,0001.13,0000.75
2023-09-05 07:38:00,SystemResetWarning,0827.0,4.99,000.00,028.5,027.1,000.0,036.8,030.1,16.7,0000.0,0002.28,0001.13,0000.75
2023-09-05 07:39:00,SystemResetWarning,0827.0,5.00,000.00,028.4,025.7,000.0,036.7,029.6,17.2,0000.0,0002.14,0001.12,0000.75
2023-09-05 07:40:00,SystemResetWarning,0827.0,5.00,000.00,028.3,024.5,000.0,036.6,029.3,18.8,0000.0,0002.16,0001.12,0000.75
2023-09-05 07:41:00,SystemResetWarning,0827.0,5.02,000.00,028.2,024.4,000.0,036.6,029.2,19.9,0000.0,0002.23,0001.16,0000.75
2023-09-05 07:42:00,SystemResetWarning,0827.2,5.00,000.00,028.1,024.7,000.0,036.6,029.1,20.3,0000.0,0002.08,0001.11,0000.74
2023-09-05 07:43:00,SystemResetWarning,0827.2,5.00,000.00,028.0,025.0,000.0,036.5,029.2,20.5,0000.0,0001.90,0001.04,0000.73
2023-09-05 07:44:00,SystemResetWarning,0827.2,5.01,000.00,028.0,025.4,000.0,036.5,029.3,20.6,0000.0,0002.03,0001.04,0000.73
2023-09-05 07:45:00,SystemResetWarning,0827.2,5.00,000.00,028.0,025.7,000.0,036.5,029.4,20.8,0000.0,0002.06,0001.03,0000.73
2023-09-05 07:46:00,SystemResetWarning,0827.1,5.00,000.00,028.0,025.9,000.0,036.5,029.4,21.1,0000.0,0001.96,0001.03,0000.73
2023-09-05 07:47:00,SystemResetWarning,0827.2,5.00,000.00,028.0,026.1,000.0,036.5,029.4,21.2,0000.0,0001.81,0001.04,0000.72
2023-09-05 07:48:00,SystemResetWarning,0827.2,4.99,000.00,028.0,026.2,000.0,036.5,029.5,21.2,0000.0,0001.82,0001.01,0000.73
2023-09-05 07:49:00,SystemResetWarning,0827.1,5.00,000.00,028.0,026.4,000.0,036.5,029.5,21.2,0000.0,0001.77,0000.98,0000.73
2023-09-05 07:50:00,SystemResetWarning,0827.1,5.00,000.00,028.0,026.5,000.0,036.5,029.5,18.8,0000.0,0001.85,0001.01,0000.73
2023-09-05 07:51:00,SystemResetWarning,0827.2,5.00,000.00,028.0,026.5,000.0,036.5,029.6,19.7,0000.0,0001.89,0001.02,0000.72
2023-09-05 07:52:00,SystemResetWarning,0827.2,4.99,000.00,028.1,026.6,000.0,036.5,029.6,21.2,0000.0,0001.82,0000.99,0000.73
2023-09-05 07:53:00,SystemResetWarning,0827.2,4.99,000.00,028.1,026.7,000.0,036.5,029.6,21.4,0000.0,0003.26,0000.98,0000.73
2023-09-05 07:54:00,SystemResetWarning,0827.2,5.00,000.00,028.1,026.7,000.0,036.5,029.6,21.5,0000.0,0003.47,0001.01,0000.74
2023-09-05 07:55:00,SystemResetWarning,0827.2,5.01,000.00,028.1,026.8,000.0,036.5,029.7,21.5,0000.0,0003.39,0001.00,0000.73
2023-09-05 07:56:00,SystemResetWarning,0827.2,5.01,000.00,028.1,026.8,000.0,036.5,029.7,21.3,0000.0,0003.36,0000.99,0000.73
2023-09-05 07:57:00,SystemResetWarning,0827.2,5.01,000.00,028.2,026.9,000.0,036.5,029.7,20.5,0000.0,0003.36,0001.00,0000.73
2023-09-05 07:58:00,SystemResetWarning,0827.2,5.00,000.00,028.2,026.9,000.0,036.5,029.7,20.3,0000.0,0003.44,0001.03,0000.73
2023-09-05 07:59:00,SystemResetWarning,0827.2,5.00,000.00,028.2,026.9,000.0,036.6,029.7,19.1,0000.0,0003.56,0001.06,0000.74
